{"data":{"norad_id":66353,"intl_designator":"2025-254F","name":"STARLINK-35869","alt_names":[],"object_type":"PAYLOAD","status":"ACTIVE","operator":null,"country":"US","launch_date":"2025-11-06","launch_site_code":"AFWTR","launch_vehicle":null,"mission":null,"orbit_class":"UNKNOWN","rcs_meters":null,"size_class":null,"mass_kg":null,"dimensions":null,"purposes":["comms"],"wikipedia_slug":null,"has_3d_model":false,"image_url":null,"decayed_at":null,"tle_current":{"epoch":"2026-09-20T21:47:58.383168Z","epoch_age_seconds":58156,"freshness":"FRESH","line1":"1 66353U 25254F   26263.90831462  .00015446  00000+0  46727-3 0  9991","line2":"2 66353  53.1595  43.6163 0001276  82.4556 277.6592 15.34403992 48899","mean_motion":15.34403992,"eccentricity":0.0001276,"inclination_deg":53.1595,"raan_deg":43.6163,"arg_perigee_deg":82.4556,"mean_anomaly_deg":277.6592,"bstar":0.00046727,"rev_number":4889,"period_min":93.847513921223,"perigee_km":461.81848546688,"apogee_km":463.56426486822,"semimajor_km":6840.8283751676,"source":"CELESTRAK","updated_at":"2026-09-21T09:00:35.880097Z"}}}